Back to catalog

FENGYUN 1C DEB

AlivePO
NORAD 29738·DEBRIS·🇨🇳 China

Launched May 10, 1999 from Taiyuan Satellite Launch Center

Loading…

Next Passes (next 24 hours)

TLE

FreshSource: Space-Track

Epoch: Sep 14, 2026, 06:25 UTC

1 29738U 99025AC  26257.26797158 -.00000222  00000-0 -25870-3 0  9994
2 29738  99.4190  19.5057 0849816  55.5134 312.3282 12.62476774896920

Track FENGYUN 1C DEB in real time with AllMySat

Download on the App Store